"Sample Date","Sample Time","Sample Value","Units","Flow Rate","Sample Interval","Number Channels","Micron Size 0","Counts/Channel 0","Micron Size 1","Counts/Channel 1","Micron Size 2","Counts/Channel 2","Micron Size 3","Counts/Channel 3","Micron Size 4","Counts/Channel 4","Micron Size 5","Counts/Channel 5","Micron Size 6","Counts/Channel 6","Micron Size 7","Counts/Channel 7","Micron Size 8","Counts/Channel 8","Micron Size 9","Counts/Channel 9","Micron Size 10","Counts/Channel 10","Micron Size 11","Counts/Channel 11","Micron Size 12","Counts/Channel 12","Micron Size 13","Counts/Channel 13","Micron Size 14","Counts/Channel 14","Micron Size 15","Counts/Channel 15","Micron Size 16","Counts/Channel 16","Micron Size 17","Counts/Channel 17","Micron Size 18","Counts/Channel 18","Micron Size 19","Counts/Channel 19","Micron Size 20","Counts/Channel 20","Micron Size 21","Counts/Channel 21","Micron Size 22","Counts/Channel 22","Micron Size 23","Counts/Channel 23","Micron Size 24","Counts/Channel 24","Micron Size 25","Counts/Channel 25","Micron Size 26","Counts/Channel 26","Micron Size 27","Counts/Channel 27","Micron Size 28","Counts/Channel 28","Micron Size 29","Counts/Channel 29","Micron Size 30","Counts/Channel 30","Micron Size 31","Counts/Channel 31"
"04/04/08","02:00:04",243466.000,"cc",28312.801,6.00,6,0.100,203856.000,0.200,34852.000,0.300,2409.000,0.500,1784.000,1.000,565.000,5.000,0
"04/04/08","02:00:10",224723.000,"cc",28316.742,6.00,6,0.100,145172.000,0.200,73513.000,0.300,3605.000,0.500,1804.000,1.000,629.000,5.000,0
"04/04/08","02:00:16",224901.000,"cc",28280.316,6.00,6,0.100,147893.000,0.200,71120.000,0.300,3563.000,0.500,1797.000,1.000,528.000,5.000,0
"04/04/08","02:00:22",285864.000,"cc",28307.578,6.00,6,0.100,241879.000,0.200,39213.000,0.300,2467.000,0.500,1745.000,1.000,560.000,5.000,0
"04/04/08","02:00:28",318542.000,"cc",28323.356,6.00,6,0.100,280315.000,0.200,33591.000,0.300,2338.000,0.500,1682.000,1.000,616.000,5.000,0
"04/04/08","02:00:34",222067.000,"cc",28384.813,6.00,6,0.100,196719.000,0.200,20779.000,0.300,2170.000,0.500,1836.000,1.000,563.000,5.000,0
"04/04/08","02:00:40",179270.000,"cc",28332.641,6.00,6,0.100,158294.000,0.200,16716.000,0.300,1979.000,0.500,1698.000,1.000,583.000,5.000,0
"04/04/08","02:00:46",177782.000,"cc",28303.471,6.00,6,0.100,157151.000,0.200,16340.000,0.300,1992.000,0.500,1729.000,1.000,570.000,5.000,0
"04/04/08","02:00:52",98566.000,"cc",28310.820,6.00,6,0.100,85730.000,0.200,8749.000,0.300,1743.000,0.500,1758.000,1.000,586.000,5.000,0
"04/04/08","02:00:58",87825.000,"cc",28309.975,6.00,6,0.100,76274.000,0.200,7544.000,0.300,1707.000,0.500,1772.000,1.000,528.000,5.000,0
"04/04/08","02:01:04",76086.000,"cc",28277.516,6.00,6,0.100,65202.000,0.200,6878.000,0.300,1736.000,0.500,1728.000,1.000,542.000,5.000,0
"04/04/08","02:01:10",75198.000,"cc",28350.447,6.00,6,0.100,63946.000,0.200,6957.000,0.300,1890.000,0.500,1790.000,1.000,615.000,5.000,0
"04/04/08","02:01:16",83782.000,"cc",28298.367,6.00,6,0.100,72127.000,0.200,7565.000,0.300,1792.000,0.500,1706.000,1.000,592.000,5.000,0
"04/04/08","02:01:22",189845.000,"cc",28289.988,6.00,6,0.100,167637.000,0.200,17953.000,0.300,1983.000,0.500,1695.000,1.000,577.000,5.000,0
"04/04/08","02:01:28",242433.000,"cc",28275.072,6.00,6,0.100,214136.000,0.200,23682.000,0.300,2243.000,0.500,1791.000,1.000,581.000,5.000,0
"04/04/08","02:01:34",268945.000,"cc",28374.715,6.00,6,0.100,238212.000,0.200,26285.000,0.300,2186.000,0.500,1685.000,1.000,577.000,5.000,0
"04/04/08","02:01:40",141403.000,"cc",28307.631,6.00,6,0.100,124549.000,0.200,12755.000,0.300,1835.000,0.500,1726.000,1.000,538.000,5.000,0
"04/04/08","02:01:46",172022.000,"cc",28351.475,6.00,6,0.100,152116.000,0.200,15715.000,0.300,1984.000,0.500,1642.000,1.000,565.000,5.000,0
"04/04/08","02:01:52",167981.000,"cc",28269.900,6.00,6,0.100,148613.000,0.200,15093.000,0.300,1923.000,0.500,1770.000,1.000,582.000,5.000,0
"04/04/08","02:01:58",198712.000,"cc",28264.955,6.00,6,0.100,175732.000,0.200,18750.000,0.300,1942.000,0.500,1743.000,1.000,545.000,5.000,0
"04/04/08","02:02:04",349021.000,"cc",28352.113,6.00,6,0.100,306774.000,0.200,37334.000,0.300,2580.000,0.500,1816.000,1.000,517.000,5.000,0
"04/04/08","02:02:10",357310.000,"cc",28300.063,6.00,6,0.100,313558.000,0.200,38873.000,0.300,2499.000,0.500,1781.000,1.000,599.000,5.000,0
"04/04/08","02:02:16",354582.000,"cc",28384.791,6.00,6,0.100,311628.000,0.200,38142.000,0.300,2500.000,0.500,1742.000,1.000,570.000,5.000,0
"04/04/08","02:02:22",311660.000,"cc",28309.830,6.00,6,0.100,263848.000,0.200,42822.000,0.300,2620.000,0.500,1772.000,1.000,598.000,5.000,0
"04/04/08","02:02:28",209266.000,"cc",28277.504,6.00,6,0.100,185985.000,0.200,18968.000,0.300,1993.000,0.500,1736.000,1.000,584.000,5.000,0
"04/04/08","02:02:34",105658.000,"cc",28380.775,6.00,6,0.100,92789.000,0.200,9046.000,0.300,1628.000,0.500,1648.000,1.000,547.000,5.000,0
"04/04/08","02:02:40",150988.000,"cc",28336.533,6.00,6,0.100,133700.000,0.200,13171.000,0.300,1764.000,0.500,1772.000,1.000,581.000,5.000,0
"04/04/08","02:02:46",85491.000,"cc",28311.914,6.00,6,0.100,74061.000,0.200,7369.000,0.300,1723.000,0.500,1731.000,1.000,607.000,5.000,0
"04/04/08","02:02:52",80448.000,"cc",28280.258,6.00,6,0.100,69406.000,0.200,7041.000,0.300,1713.000,0.500,1705.000,1.000,583.000,5.000,0
"04/04/08","02:02:58",200665.000,"cc",28284.764,6.00,6,0.100,151432.000,0.200,44191.000,0.300,2689.000,0.500,1771.000,1.000,582.000,5.000,0
"04/04/08","02:03:04",331894.000,"cc",28322.400,6.00,6,0.100,292651.000,0.200,34511.000,0.300,2382.000,0.500,1770.000,1.000,580.000,5.000,0
"04/04/08","02:03:10",327584.000,"cc",28318.529,6.00,6,0.100,289107.000,0.200,33748.000,0.300,2398.000,0.500,1770.000,1.000,561.000,5.000,0
"04/04/08","02:03:16",220529.000,"cc",28350.611,6.00,6,0.100,195545.000,0.200,20658.000,0.300,2081.000,0.500,1673.000,1.000,572.000,5.000,0
"04/04/08","02:03:22",167528.000,"cc",28251.461,6.00,6,0.100,148776.000,0.200,14629.000,0.300,1848.000,0.500,1693.000,1.000,582.000,5.000,0
"04/04/08","02:03:28",221395.000,"cc",28327.184,6.00,6,0.100,196823.000,0.200,20271.000,0.300,2047.000,0.500,1669.000,1.000,585.000,5.000,0
"04/04/08","02:03:34",153342.000,"cc",28352.201,6.00,6,0.100,135940.000,0.200,13216.000,0.300,1874.000,0.500,1743.000,1.000,569.000,5.000,0
"04/04/08","02:03:40",135041.000,"cc",28327.379,6.00,6,0.100,119566.000,0.200,11281.000,0.300,1851.000,0.500,1782.000,1.000,561.000,5.000,0
"04/04/08","02:03:46",107167.000,"cc",28411.502,6.00,6,0.100,94112.000,0.200,9050.000,0.300,1671.000,0.500,1783.000,1.000,551.000,5.000,0
"04/04/08","02:03:52",175405.000,"cc",28280.049,6.00,6,0.100,155606.000,0.200,15650.000,0.300,1840.000,0.500,1735.000,1.000,574.000,5.000,0
"04/04/08","02:03:58",178745.000,"cc",28260.133,6.00,6,0.100,159016.000,0.200,15533.000,0.300,1871.000,0.500,1762.000,1.000,563.000,5.000,0
"04/04/08","02:04:04",172331.000,"cc",28351.152,6.00,6,0.100,153226.000,0.200,14909.000,0.300,1874.000,0.500,1746.000,1.000,576.000,5.000,0
"04/04/08","02:04:10",123020.000,"cc",28319.990,6.00,6,0.100,108728.000,0.200,10295.000,0.300,1713.000,0.500,1703.000,1.000,581.000,5.000,0
"04/04/08","02:04:16",184779.000,"cc",28298.897,6.00,6,0.100,164313.000,0.200,16192.000,0.300,1991.000,0.500,1755.000,1.000,528.000,5.000,0
"04/04/08","02:04:22",158627.000,"cc",28307.936,6.00,6,0.100,140903.000,0.200,13560.000,0.300,1867.000,0.500,1703.000,1.000,594.000,5.000,0
"04/04/08","02:04:28",129032.000,"cc",28294.242,6.00,6,0.100,113983.000,0.200,11001.000,0.300,1800.000,0.500,1678.000,1.000,570.000,5.000,0
"04/04/08","02:04:34",131005.000,"cc",28300.984,6.00,6,0.100,115932.000,0.200,10980.000,0.300,1773.000,0.500,1742.000,1.000,578.000,5.000,0
"04/04/08","02:04:40",160128.000,"cc",28342.106,6.00,6,0.100,142214.000,0.200,13745.000,0.300,1821.000,0.500,1742.000,1.000,606.000,5.000,0
"04/04/08","02:04:46",149818.000,"cc",28291.713,6.00,6,0.100,133035.000,0.200,12726.000,0.300,1818.000,0.500,1668.000,1.000,571.000,5.000,0
"04/04/08","02:04:52",115668.000,"cc",28339.711,6.00,6,0.100,101764.000,0.200,9893.000,0.300,1715.000,0.500,1689.000,1.000,607.000,5.000,0
"04/04/08","02:04:58",113293.000,"cc",28349.190,6.00,6,0.100,99848.000,0.200,9448.000,0.300,1714.000,0.500,1749.000,1.000,534.000,5.000,0
"04/04/08","02:05:04",133481.000,"cc",28281.420,6.00,6,0.100,118020.000,0.200,11400.000,0.300,1762.000,0.500,1702.000,1.000,597.000,5.000,0
"04/04/08","02:05:10",160593.000,"cc",28309.869,6.00,6,0.100,142519.000,0.200,14000.000,0.300,1821.000,0.500,1672.000,1.000,581.000,5.000,0
"04/04/08","02:05:16",165003.000,"cc",28291.518,6.00,6,0.100,146602.000,0.200,14199.000,0.300,1843.000,0.500,1760.000,1.000,599.000,5.000,0
"04/04/08","02:05:22",184009.000,"cc",28358.979,6.00,6,0.100,163978.000,0.200,15859.000,0.300,1969.000,0.500,1667.000,1.000,536.000,5.000,0
"04/04/08","02:05:28",207773.000,"cc",28314.842,6.00,6,0.100,184994.000,0.200,18431.000,0.300,1972.000,0.500,1811.000,1.000,565.000,5.000,0
"04/04/08","02:05:34",118252.000,"cc",28245.719,6.00,6,0.100,103822.000,0.200,10442.000,0.300,1676.000,0.500,1720.000,1.000,592.000,5.000,0
"04/04/08","02:05:40",196518.000,"cc",28383.926,6.00,6,0.100,174803.000,0.200,17516.000,0.300,1892.000,0.500,1744.000,1.000,563.000,5.000,0
"04/04/08","02:05:46",134130.000,"cc",28367.898,6.00,6,0.100,118673.000,0.200,11377.000,0.300,1758.000,0.500,1753.000,1.000,569.000,5.000,0
"04/04/08","02:05:52",147515.000,"cc",28314.346,6.00,6,0.100,130614.000,0.200,12843.000,0.300,1761.000,0.500,1754.000,1.000,543.000,5.000,0
"04/04/08","02:05:58",89966.000,"cc",28315.488,6.00,6,0.100,78442.000,0.200,7565.000,0.300,1707.000,0.500,1683.000,1.000,569.000,5.000,0
"04/04/08","02:06:04",136083.000,"cc",28295.006,6.00,6,0.100,120693.000,0.200,11386.000,0.300,1816.000,0.500,1629.000,1.000,559.000,5.000,0
"04/04/08","02:06:10",98058.000,"cc",28311.596,6.00,6,0.100,85736.000,0.200,8283.000,0.300,1736.000,0.500,1731.000,1.000,572.000,5.000,0
"04/04/08","02:06:16",77288.000,"cc",28331.465,6.00,6,0.100,66965.000,0.200,6540.000,0.300,1583.000,0.500,1695.000,1.000,505.000,5.000,0
"04/04/08","02:06:22",62641.000,"cc",28342.516,6.00,6,0.100,53311.000,0.200,5518.000,0.300,1621.000,0.500,1657.000,1.000,534.000,5.000,0
"04/04/08","02:06:28",40549.000,"cc",28302.813,6.00,6,0.100,32987.000,0.200,3711.000,0.300,1557.000,0.500,1724.000,1.000,570.000,5.000,0
"04/04/08","02:06:34",33911.000,"cc",28342.193,6.00,6,0.100,26931.000,0.200,3238.000,0.300,1529.000,0.500,1659.000,1.000,554.000,5.000,0
"04/04/08","02:06:40",66731.000,"cc",28325.272,6.00,6,0.100,57174.000,0.200,5642.000,0.300,1635.000,0.500,1722.000,1.000,558.000,5.000,0
"04/04/08","02:06:46",70944.000,"cc",28291.693,6.00,6,0.100,60866.000,0.200,6022.000,0.300,1704.000,0.500,1741.000,1.000,611.000,5.000,0
"04/04/08","02:06:52",74573.000,"cc",28277.234,6.00,6,0.100,64175.000,0.200,6485.000,0.300,1658.000,0.500,1695.000,1.000,560.000,5.000,0
"04/04/08","02:06:58",194068.000,"cc",28358.203,6.00,6,0.100,172292.000,0.200,17531.000,0.300,1896.000,0.500,1747.000,1.000,602.000,5.000,0
"04/04/08","02:07:04",303785.000,"cc",28333.012,6.00,6,0.100,268533.000,0.200,30740.000,0.300,2123.000,0.500,1790.000,1.000,599.000,5.000,0
"04/04/08","02:07:10",149559.000,"cc",28345.125,6.00,6,0.100,132388.000,0.200,12969.000,0.300,1802.000,0.500,1780.000,1.000,620.000,5.000,0
"04/04/08","02:07:16",166200.000,"cc",28332.979,6.00,6,0.100,147307.000,0.200,14740.000,0.300,1806.000,0.500,1776.000,1.000,571.000,5.000,0
"04/04/08","02:07:22",162474.000,"cc",28275.727,6.00,6,0.100,144192.000,0.200,14180.000,0.300,1792.000,0.500,1727.000,1.000,583.000,5.000,0
"04/04/08","02:07:28",117934.000,"cc",28291.063,6.00,6,0.100,103702.000,0.200,10211.000,0.300,1737.000,0.500,1727.000,1.000,557.000,5.000,0
"04/04/08","02:07:34",124640.000,"cc",28275.145,6.00,6,0.100,109870.000,0.200,10718.000,0.300,1766.000,0.500,1674.000,1.000,612.000,5.000,0
"04/04/08","02:07:40",104276.000,"cc",28293.369,6.00,6,0.100,91218.000,0.200,8966.000,0.300,1745.000,0.500,1786.000,1.000,561.000,5.000,0
"04/04/08","02:07:46",102235.000,"cc",28305.410,6.00,6,0.100,89417.000,0.200,8767.000,0.300,1770.000,0.500,1677.000,1.000,604.000,5.000,0
"04/04/08","02:07:52",105934.000,"cc",28357.955,6.00,6,0.100,92603.000,0.200,9208.000,0.300,1759.000,0.500,1810.000,1.000,554.000,5.000,0
"04/04/08","02:07:58",79772.000,"cc",28339.070,6.00,6,0.100,68564.000,0.200,7219.000,0.300,1611.000,0.500,1800.000,1.000,578.000,5.000,0
"04/04/08","02:08:04",93790.000,"cc",28310.074,6.00,6,0.100,81325.000,0.200,8473.000,0.300,1736.000,0.500,1732.000,1.000,524.000,5.000,0
"04/04/08","02:08:10",117779.000,"cc",28309.580,6.00,6,0.100,102866.000,0.200,10863.000,0.300,1832.000,0.500,1692.000,1.000,526.000,5.000,0
"04/04/08","02:08:16",102393.000,"cc",28287.295,6.00,6,0.100,89199.000,0.200,9149.000,0.300,1737.000,0.500,1739.000,1.000,569.000,5.000,0
"04/04/08","02:08:22",110296.000,"cc",28304.365,6.00,6,0.100,95893.000,0.200,10271.000,0.300,1839.000,0.500,1711.000,1.000,582.000,5.000,0
"04/04/08","02:08:28",91718.000,"cc",28294.023,6.00,6,0.100,79268.000,0.200,8382.000,0.300,1746.000,0.500,1731.000,1.000,591.000,5.000,0
"04/04/08","02:08:34",81188.000,"cc",28280.672,6.00,6,0.100,69815.000,0.200,7318.000,0.300,1736.000,0.500,1758.000,1.000,561.000,5.000,0
"04/04/08","02:08:40",51803.000,"cc",28436.912,6.00,6,0.100,42978.000,0.200,4962.000,0.300,1603.000,0.500,1743.000,1.000,517.000,5.000,0
"04/04/08","02:08:46",59508.000,"cc",28282.270,6.00,6,0.100,50046.000,0.200,5557.000,0.300,1629.000,0.500,1719.000,1.000,557.000,5.000,0
"04/04/08","02:08:52",65205.000,"cc",28328.334,6.00,6,0.100,55281.000,0.200,5977.000,0.300,1702.000,0.500,1691.000,1.000,554.000,5.000,0
"04/04/08","02:08:58",81591.000,"cc",28263.660,6.00,6,0.100,70055.000,0.200,7419.000,0.300,1769.000,0.500,1737.000,1.000,611.000,5.000,0
"04/04/08","02:09:04",55029.000,"cc",28318.096,6.00,6,0.100,46210.000,0.200,4961.000,0.300,1593.000,0.500,1694.000,1.000,571.000,5.000,0
"04/04/08","02:09:10",86859.000,"cc",28336.422,6.00,6,0.100,75118.000,0.200,7754.000,0.300,1632.000,0.500,1791.000,1.000,564.000,5.000,0
"04/04/08","02:09:16",80884.000,"cc",28310.211,6.00,6,0.100,69645.000,0.200,7180.000,0.300,1713.000,0.500,1730.000,1.000,616.000,5.000,0
"04/04/08","02:09:22",155545.000,"cc",28312.090,6.00,6,0.100,136868.000,0.200,14435.000,0.300,1887.000,0.500,1789.000,1.000,566.000,5.000,0
"04/04/08","02:09:28",166390.000,"cc",28302.650,6.00,6,0.100,146328.000,0.200,15626.000,0.300,2022.000,0.500,1794.000,1.000,620.000,5.000,0
"04/04/08","02:09:34",112245.000,"cc",28353.734,6.00,6,0.100,98112.000,0.200,10049.000,0.300,1750.000,0.500,1745.000,1.000,589.000,5.000,0
"04/04/08","02:09:40",76284.000,"cc",28343.363,6.00,6,0.100,65355.000,0.200,6875.000,0.300,1744.000,0.500,1712.000,1.000,598.000,5.000,0
"04/04/08","02:09:46",85114.000,"cc",28278.793,6.00,6,0.100,73025.000,0.200,7883.000,0.300,1765.000,0.500,1837.000,1.000,604.000,5.000,0
"04/04/08","02:09:52",142993.000,"cc",28283.385,6.00,6,0.100,125396.000,0.200,13244.000,0.300,1915.000,0.500,1856.000,1.000,582.000,5.000,0
"04/04/08","02:09:58",121659.000,"cc",28333.834,6.00,6,0.100,106619.000,0.200,10890.000,0.300,1841.000,0.500,1724.000,1.000,585.000,5.000,0
"04/04/08","02:10:04",151603.000,"cc",28287.631,6.00,6,0.100,133421.000,0.200,14031.000,0.300,1864.000,0.500,1740.000,1.000,547.000,5.000,0
"04/04/08","02:10:10",273194.000,"cc",28294.732,6.00,6,0.100,240694.000,0.200,27973.000,0.300,2265.000,0.500,1699.000,1.000,563.000,5.000,0
"04/04/08","02:10:16",235397.000,"cc",28416.713,6.00,6,0.100,207727.000,0.200,23133.000,0.300,2220.000,0.500,1765.000,1.000,552.000,5.000,0
"04/04/08","02:10:22",204107.000,"cc",28319.371,6.00,6,0.100,180463.000,0.200,19386.000,0.300,2024.000,0.500,1698.000,1.000,536.000,5.000,0
"04/04/08","02:10:28",182522.000,"cc",28305.369,6.00,6,0.100,161476.000,0.200,16725.000,0.300,1961.000,0.500,1778.000,1.000,582.000,5.000,0
"04/04/08","02:10:34",298846.000,"cc",28313.815,6.00,6,0.100,248267.000,0.200,45520.000,0.300,2706.000,0.500,1801.000,1.000,552.000,5.000,0
"04/04/08","02:10:40",292878.000,"cc",28290.678,6.00,6,0.100,247450.000,0.200,40569.000,0.300,2542.000,0.500,1755.000,1.000,562.000,5.000,0
"04/04/08","02:10:46",262698.000,"cc",28288.912,6.00,6,0.100,220574.000,0.200,37296.000,0.300,2475.000,0.500,1786.000,1.000,567.000,5.000,0
"04/04/08","02:10:52",180454.000,"cc",28348.580,6.00,6,0.100,159736.000,0.200,16468.000,0.300,1900.000,0.500,1771.000,1.000,579.000,5.000,0
"04/04/08","02:10:58",128503.000,"cc",28324.656,6.00,6,0.100,112703.000,0.200,11663.000,0.300,1833.000,0.500,1742.000,1.000,562.000,5.000,0
"04/04/08","02:11:04",89112.000,"cc",28363.070,6.00,6,0.100,77086.000,0.200,8050.000,0.300,1687.000,0.500,1685.000,1.000,604.000,5.000,0
"04/04/08","02:11:10",124585.000,"cc",28212.078,6.00,6,0.100,109038.000,0.200,11576.000,0.300,1769.000,0.500,1669.000,1.000,533.000,5.000,0
"04/04/08","02:11:16",118264.000,"cc",28252.037,6.00,6,0.100,60273.000,0.200,52720.000,0.300,2988.000,0.500,1738.000,1.000,545.000,5.000,0
"04/04/08","02:11:22",256316.000,"cc",28361.412,6.00,6,0.100,156403.000,0.200,93192.000,0.300,4250.000,0.500,1901.000,1.000,570.000,5.000,0
"04/04/08","02:11:28",274613.000,"cc",28314.932,6.00,6,0.100,231563.000,0.200,38464.000,0.300,2330.000,0.500,1659.000,1.000,597.000,5.000,0
"04/04/08","02:11:34",252826.000,"cc",28263.240,6.00,6,0.100,223330.000,0.200,24929.000,0.300,2229.000,0.500,1801.000,1.000,537.000,5.000,0
"04/04/08","02:11:40",209029.000,"cc",28330.445,6.00,6,0.100,173829.000,0.200,30576.000,0.300,2330.000,0.500,1750.000,1.000,544.000,5.000,0
"04/04/08","02:11:46",276518.000,"cc",28324.363,6.00,6,0.100,226533.000,0.200,44985.000,0.300,2802.000,0.500,1664.000,1.000,534.000,5.000,0
"04/04/08","02:11:52",246238.000,"cc",28353.012,6.00,6,0.100,217259.000,0.200,24583.000,0.300,2101.000,0.500,1747.000,1.000,548.000,5.000,0
"04/04/08","02:11:58",231533.000,"cc",28351.859,6.00,6,0.100,204257.000,0.200,22823.000,0.300,2069.000,0.500,1816.000,1.000,568.000,5.000,0
"04/04/08","02:12:04",141368.000,"cc",28301.504,6.00,6,0.100,123989.000,0.200,13159.000,0.300,1841.000,0.500,1794.000,1.000,585.000,5.000,0
"04/04/08","02:12:10",117081.000,"cc",28275.445,6.00,6,0.100,102163.000,0.200,10806.000,0.300,1822.000,0.500,1723.000,1.000,567.000,5.000,0
"04/04/08","02:12:16",164895.000,"cc",28358.961,6.00,6,0.100,145201.000,0.200,15457.000,0.300,1904.000,0.500,1773.000,1.000,560.000,5.000,0
"04/04/08","02:12:22",113507.000,"cc",28292.768,6.00,6,0.100,98773.000,0.200,10656.000,0.300,1757.000,0.500,1756.000,1.000,565.000,5.000,0
"04/04/08","02:12:28",101413.000,"cc",28323.248,6.00,6,0.100,87922.000,0.200,9540.000,0.300,1740.000,0.500,1689.000,1.000,522.000,5.000,0
"04/04/08","02:12:34",87087.000,"cc",28326.582,6.00,6,0.100,75063.000,0.200,8057.000,0.300,1687.000,0.500,1670.000,1.000,610.000,5.000,0
"04/04/08","02:12:40",71815.000,"cc",28338.502,6.00,6,0.100,61087.000,0.200,6734.000,0.300,1730.000,0.500,1718.000,1.000,546.000,5.000,0
"04/04/08","02:12:46",97965.000,"cc",28303.443,6.00,6,0.100,84846.000,0.200,8963.000,0.300,1814.000,0.500,1763.000,1.000,579.000,5.000,0
"04/04/08","02:12:52",174731.000,"cc",28309.898,6.00,6,0.100,153586.000,0.200,16855.000,0.300,1894.000,0.500,1787.000,1.000,609.000,5.000,0
"04/04/08","02:12:58",175688.000,"cc",28339.164,6.00,6,0.100,154089.000,0.200,17302.000,0.300,1995.000,0.500,1722.000,1.000,580.000,5.000,0
"04/04/08","02:13:04",338888.000,"cc",28249.500,6.00,6,0.100,295829.000,0.200,38189.000,0.300,2569.000,0.500,1753.000,1.000,548.000,5.000,0
"04/04/08","02:13:10",338579.000,"cc",28313.385,6.00,6,0.100,295137.000,0.200,38651.000,0.300,2459.000,0.500,1757.000,1.000,575.000,5.000,0
"04/04/08","02:13:16",340751.000,"cc",28362.650,6.00,6,0.100,298018.000,0.200,37913.000,0.300,2448.000,0.500,1824.000,1.000,548.000,5.000,0
"04/04/08","02:13:22",221819.000,"cc",28312.381,6.00,6,0.100,195812.000,0.200,21555.000,0.300,2089.000,0.500,1776.000,1.000,587.000,5.000,0
"04/04/08","02:13:28",279492.000,"cc",28337.018,6.00,6,0.100,245098.000,0.200,29907.000,0.300,2327.000,0.500,1619.000,1.000,541.000,5.000,0
"04/04/08","02:13:34",188707.000,"cc",28324.213,6.00,6,0.100,166657.000,0.200,17743.000,0.300,1993.000,0.500,1747.000,1.000,567.000,5.000,0
"04/04/08","02:13:40",100537.000,"cc",28262.729,6.00,6,0.100,87717.000,0.200,8835.000,0.300,1792.000,0.500,1652.000,1.000,541.000,5.000,0
"04/04/08","02:13:46",149287.000,"cc",28333.012,6.00,6,0.100,131897.000,0.200,13043.000,0.300,1980.000,0.500,1769.000,1.000,598.000,5.000,0
"04/04/08","02:13:52",42284.000,"cc",28367.367,6.00,6,0.100,34568.000,0.200,3891.000,0.300,1653.000,0.500,1641.000,1.000,531.000,5.000,0
"04/04/08","02:13:58",27344.000,"cc",28307.594,6.00,6,0.100,20822.000,0.200,2715.000,0.300,1600.000,0.500,1690.000,1.000,517.000,5.000,0
"04/04/08","02:14:04",18016.000,"cc",28288.979,6.00,6,0.100,12186.000,0.200,2099.000,0.300,1539.000,0.500,1685.000,1.000,507.000,5.000,0
"04/04/08","02:14:10",36190.000,"cc",28316.918,6.00,6,0.100,28903.000,0.200,3488.000,0.300,1593.000,0.500,1637.000,1.000,569.000,5.000,0
"04/04/08","02:14:16",19755.000,"cc",28301.303,6.00,6,0.100,13672.000,0.200,2178.000,0.300,1617.000,0.500,1730.000,1.000,558.000,5.000,0
"04/04/08","02:14:22",16554.000,"cc",28292.213,6.00,6,0.100,10916.000,0.200,1946.000,0.300,1422.000,0.500,1692.000,1.000,578.000,5.000,0
"04/04/08","02:14:28",16661.000,"cc",28298.727,6.00,6,0.100,11002.000,0.200,1957.000,0.300,1493.000,0.500,1671.000,1.000,538.000,5.000,0
"04/04/08","02:14:34",16529.000,"cc",28327.188,6.00,6,0.100,10799.000,0.200,1923.000,0.300,1518.000,0.500,1738.000,1.000,551.000,5.000,0
"04/04/08","02:14:40",16239.000,"cc",28300.313,6.00,6,0.100,10493.000,0.200,1956.000,0.300,1581.000,0.500,1653.000,1.000,556.000,5.000,0
"04/04/08","02:14:46",16146.000,"cc",28308.863,6.00,6,0.100,10499.000,0.200,1860.000,0.300,1557.000,0.500,1713.000,1.000,517.000,5.000,0
"04/04/08","02:14:52",16276.000,"cc",28362.471,6.00,6,0.100,10679.000,0.200,1912.000,0.300,1504.000,0.500,1680.000,1.000,501.000,5.000,0
"04/04/08","02:14:58",16029.000,"cc",28349.645,6.00,6,0.100,10421.000,0.200,1886.000,0.300,1554.000,0.500,1644.000,1.000,524.000,5.000,0
"04/04/08","02:15:04",16186.000,"cc",28348.041,6.00,6,0.100,10541.000,0.200,1916.000,0.300,1535.000,0.500,1654.000,1.000,540.000,5.000,0
"04/04/08","02:15:10",16034.000,"cc",28329.190,6.00,6,0.100,10496.000,0.200,1846.000,0.300,1512.000,0.500,1617.000,1.000,563.000,5.000,0
"04/04/08","02:15:16",16225.000,"cc",28234.232,6.00,6,0.100,10587.000,0.200,1901.000,0.300,1529.000,0.500,1696.000,1.000,512.000,5.000,0
"04/04/08","02:15:22",16145.000,"cc",28209.219,6.00,6,0.100,10497.000,0.200,1897.000,0.300,1590.000,0.500,1608.000,1.000,553.000,5.000,0
"04/04/08","02:15:28",16192.000,"cc",28334.432,6.00,6,0.100,10484.000,0.200,2008.000,0.300,1511.000,0.500,1643.000,1.000,546.000,5.000,0
"04/04/08","02:15:34",16241.000,"cc",28422.555,6.00,6,0.100,10533.000,0.200,1932.000,0.300,1526.000,0.500,1696.000,1.000,554.000,5.000,0
"04/04/08","02:15:40",15884.000,"cc",28322.273,6.00,6,0.100,10345.000,0.200,1900.000,0.300,1459.000,0.500,1648.000,1.000,532.000,5.000,0
"04/04/08","02:15:46",16269.000,"cc",28245.025,6.00,6,0.100,10558.000,0.200,1964.000,0.300,1530.000,0.500,1694.000,1.000,523.000,5.000,0
"04/04/08","02:15:52",16305.000,"cc",28341.660,6.00,6,0.100,10599.000,0.200,1948.000,0.300,1564.000,0.500,1656.000,1.000,538.000,5.000,0
"04/04/08","02:15:58",16200.000,"cc",28308.467,6.00,6,0.100,10612.000,0.200,1911.000,0.300,1514.000,0.500,1621.000,1.000,542.000,5.000,0
"04/04/08","02:16:04",15829.000,"cc",28330.486,6.00,6,0.100,10235.000,0.200,1879.000,0.300,1470.000,0.500,1693.000,1.000,552.000,5.000,0
"04/04/08","02:16:10",16085.000,"cc",28266.900,6.00,6,0.100,10439.000,0.200,1915.000,0.300,1540.000,0.500,1656.000,1.000,535.000,5.000,0